Location: Roswell
(33.3943°N, 104.5230°W)
Time: 22:50:53
(UTC+00:00)

Envisat - Visible Passes

Search period start: 07 October 2024 00:00
Search period end: 17 October 2024 00:00
Orbit: 762 x 764 km, 98.3° (Epoch: 07 October)

Date Brightness Start Highest point End Pass type
(mag) Time Alt. Az. Time Alt. Az. Time Alt. Az.
07 Oct 5.4 10:20:24 10° N 10:21:04 14° N 10:21:04 14° N visible
08 Oct 5.8 09:42:59 10° NNE 09:43:02 10° NNE 09:43:02 10° NNE visible
09 Oct 5.3 10:44:45 10° N 10:45:07 12° N 10:45:07 12° N visible
10 Oct 5.6 10:06:52 10° N 10:07:03 11° N 10:07:03 11° N visible
12 Oct 5.5 10:31:02 10° N 10:31:05 10° N 10:31:05 10° N visible
